Regional Weather Roundup
Issued by NWS

Home | Current Version | Previous Version | Text Only | Print | Product List | Glossary Off
Versions: 1 2 3 4 5 6 7 8 9 10 11 12 13 14 15 16 17 18 19 20 21 22 23 24 25 26 27 28 29 30 31 32 33 34 35 36 37 38 39 40 41 42 43 44 45 46 47 48 49 50

000
ASUS44 KMEG 270700
RWRTN
TENNESSEE HOURLY STATE WEATHER ROUNDUP
NATIONAL WEATHER SERVICE MEMPHIS TN
100 AM CST SAT DEC 27 2014

TNZ002-004-019-021-049-052-054-088>092-270800-
WEST TENNESSEE

CITY           SKY/WX    TMP DP  RH WIND       PRES   REMARKS
MEMPHIS INTL   CLOUDY    53  45  74 S6        30.14S
NWS MEMPHIS      N/A     51 N/A N/A MISG        N/A
JACKSON        CLOUDY    51  41  68 S9        30.15S
DYERSBURG      CLOUDY    52  34  50 S6        30.14F
UNION CITY     CLOUDY    46  41  81 SE5       30.13F
PARIS          CLOUDY    45  37  76 SE7       30.16S
LEXINGTON      CLOUDY    48  39  71 S7        30.16F
SAVANNAH       CLOUDY    46  39  76 S5        30.19S
$$

TNZ008-025-027-028-033-062-065-066-270800-
NORTH MIDDLE TENNESSEE

CITY           SKY/WX    TMP DP  RH WIND       PRES   REMARKS
NASHVILLE      CLOUDY    48  37  65 SE6       30.21S
CLARKSVILLE    CLOUDY    47  38  71 CALM      30.19F
COOKEVILLE     PTCLDY    45  36  70 S5        30.22R
CROSSVILLE     CLOUDY    48  32  53 VRB5      30.23S
$$

TNZ061-075-076-078-094-096-097-270800-
SOUTH MIDDLE TENNESSEE

CITY           SKY/WX    TMP DP  RH WIND       PRES   REMARKS
FAYETTEVILLE   CLEAR     43  36  75 MISG      30.21F
TULLAHOMA      MOCLDY    43  36  75 S6        30.22S
WINCHESTER     CLEAR     41  36  81 CALM      30.23S
SHELBYVILLE    CLOUDY    46  39  76 S3        30.23R
$$

TNZ017-018-042-046-047-270800-
NORTHEAST TENNESSEE

CITY           SKY/WX    TMP DP  RH WIND       PRES   REMARKS
TRI CITIES     CLOUDY    40  32  73 CALM      30.24R
ELIZABETHTON   SUNNY     37  27  65 E3        30.24R
$$

TNZ012-013-036-069-073-074-270800-
CENTRAL EAST TENNESSEE

CITY           SKY/WX    TMP DP  RH WIND       PRES   REMARKS
KNOXVILLE      CLOUDY    39  35  86 CALM      30.27R
OAK RIDGE      CLOUDY    41  37  86 CALM      30.28R
GATLINBURG     SUNNY     36  34  93 CALM      30.27R
$$

TNZ083-085-099-270800-
SOUTHEAST TENNESSEE

CITY           SKY/WX    TMP DP  RH WIND       PRES   REMARKS
CHATTANOOGA    MOCLDY    41  39  93 CALM      30.27S
$$

SKY/WX REPORTED AS FAIR MEANS FEW OR NO CLOUDS BELOW
12 THOUSAND FEET.



USA.gov is the U.S. government's official web portal to all federal, state and local government web resources and services.